CW9546 Weather Reports


time (UTC)temp
C
wind
direction
speed
KPH
gust
KPH
rain 1hr
cm
rain 24hr
cm
rain mn
cm
humidity
%
barometer
mb
20260506231045 12 221 3.2 0.0 0.00 0.00 0.00 75 1020.1
20260506230045 12 240 3.2 0.0 0.00 0.00 0.00 75 1020.2
20260506225054 12 143 3.2 0.0 0.00 0.00 0.00 74 1020.2
20260506224035 12 143 3.2 0.0 0.00 0.00 0.00 75 1020.2
20260506223110 13 76 1.6 0.0 0.00 0.00 0.00 75 1020.2
20260506222047 12 108 1.6 0.0 0.00 0.00 0.00 75 1020.3
20260506221039 12 194 1.6 0.0 0.00 0.00 0.00 76 1020.3
20260506220053 12 144 1.6 0.0 0.00 0.00 0.00 75 1020.3
20260506215044 12 134 1.6 0.0 0.00 0.00 0.00 75 1020.3
20260506214041 12 138 3.2 0.0 0.00 0.00 0.00 75 1020.3
20260506213052 12 195 3.2 0.0 0.00 0.00 0.00 76 1020.3
20260506212034 12 148 1.6 0.0 0.00 0.00 0.00 77 1020.3
20260506211052 12 205 1.6 0.0 0.00 0.00 0.00 77 1020.3
20260506210040 12 253 3.2 0.0 0.00 0.00 0.00 78 1020.2
20260506205041 12 242 3.2 0.0 0.00 0.00 0.00 77 1020.2
20260506204050 12 207 1.6 0.0 0.00 0.00 0.00 78 1020.2
20260506203043 12 27 1.6 0.0 0.00 0.00 0.00 78 1020.2
20260506202049 12 281 1.6 0.0 0.00 0.00 0.00 79 1020.1
20260506201044 12 160 1.6 0.0 0.00 0.00 0.00 79 1020.1
20260506200039 13 266 3.2 0.0 0.00 0.00 0.00 78 1020.0
20260506195050 13 249 3.2 0.0 0.00 0.00 0.00 77 1019.7
20260506194040 13 265 3.2 0.0 0.00 0.00 0.00 75 1019.8
20260506193028 14 335 3.2 0.0 0.00 0.00 0.00 75 1019.8
20260506192038 13 269 3.2 0.0 0.00 0.00 0.00 76 1019.8
20260506191053 12 139 3.2 0.0 0.00 0.00 0.00 75 1019.7
20260506190046 12 197 1.6 0.0 0.00 0.00 0.00 75 1019.9
20260506185102 12 318 3.2 0.0 0.00 0.00 0.00 76 1019.7
20260506184103 12 194 1.6 0.0 0.00 0.00 0.00 76 1019.7
20260506183101 12 205 3.2 0.0 0.00 0.00 0.00 75 1019.8
20260506182036 12 330 1.6 0.0 0.00 0.00 0.00 76 1019.5
20260506181030 12 170 3.2 0.0 0.00 0.00 0.00 75 1019.5
20260506180048 12 171 3.2 0.0 0.00 0.00 0.00 76 1019.4
20260506175044 12 145 3.2 0.0 0.00 0.00 0.00 77 1019.5
20260506173028 12 261 1.6 0.0 0.00 0.00 0.00 76 1019.7
20260506172035 12 240 1.6 0.0 0.00 0.00 0.00 76 1019.6
20260506171048 12 257 1.6 0.0 0.00 0.00 0.00 76 1019.6
20260506170106 12 242 3.2 0.0 0.00 0.00 0.00 75 1019.3
20260506165038 12 176 1.6 0.0 0.00 0.00 0.00 76 1019.1
20260506164056 12 281 3.2 0.0 0.00 0.00 0.00 76 1019.1
20260506163031 12 131 1.6 0.0 0.00 0.00 0.00 76 1019.1
20260506162101 12 249 3.2 0.0 0.00 0.00 0.00 77 1018.8
20260506161043 12 111 1.6 0.0 0.00 0.00 0.00 78 1018.8
20260506160036 12 242 1.6 0.0 0.00 0.00 0.00 78 1018.9
20260506155110 12 193 1.6 0.0 0.00 0.00 0.00 78 1019.2
20260506154046 12 221 1.6 0.0 0.00 0.00 0.00 78 1019.2
20260506153047 12 243 1.6 0.0 0.00 0.00 0.00 78 1019.2
20260506152039 12 262 1.6 0.0 0.00 0.00 0.00 78 1018.7
20260506151115 12 177 1.6 0.0 0.00 0.00 0.00 78 1018.7
20260506150042 11 215 1.6 0.0 0.00 0.00 0.00 77 1019.0
20260506145037 11 290 1.6 0.0 0.00 0.00 0.00 77 1018.9
20260506144054 11 203 1.6 0.0 0.00 0.00 0.00 77 1018.9
20260506143044 11 227 1.6 0.0 0.00 0.00 0.00 77 1018.8
20260506142039 11 265 1.6 0.0 0.00 0.00 0.00 77 1018.7
20260506141034 11 186 1.6 0.0 0.00 0.00 0.00 76 1018.7
20260506140045 11 290 0.0 0.0 0.00 0.00 0.00 76 1018.8
20260506135042 11 218 1.6 0.0 0.00 0.00 0.00 76 1018.7
20260506134057 11 200 0.0 0.0 0.00 0.00 0.00 76 1018.7
20260506133028 11 200 0.0 0.0 0.00 0.00 0.00 76 1018.6
20260506132102 11 200 0.0 0.0 0.00 0.00 0.00 76 1018.1
20260506131043 11 200 1.6 0.0 0.00 0.00 0.00 76 1018.1
20260506130038 11 199 0.0 0.0 0.00 0.00 0.00 76 1018.2
20260506125031 11 200 0.0 0.0 0.00 0.00 0.00 76 1018.1
20260506124046 11 200 0.0 0.0 0.00 0.00 0.00 76 1018.1
20260506123101 11 200 0.0 0.0 0.00 0.00 0.00 76 1018.1
20260506122100 11 200 1.6 0.0 0.00 0.00 0.00 76 1018.2
20260506121047 11 186 1.6 0.0 0.00 0.00 0.00 76 1018.2
20260506120053 11 166 1.6 0.0 0.00 0.00 0.00 76 1017.9
20260506115048 11 193 0.0 0.0 0.00 0.00 0.00 76 1017.8
20260506114059 11 195 1.6 0.0 0.00 0.00 0.00 76 1017.8
20260506113101 11 231 1.6 0.0 0.00 0.00 0.00 76 1017.6
20260506112054 11 174 1.6 0.0 0.00 0.00 0.00 76 1017.5
20260506111033 11 188 1.6 0.0 0.00 0.00 0.00 76 1017.5
20260506110031 11 131 3.2 0.0 0.00 0.00 0.00 76 1017.5
20260506105043 11 185 3.2 0.0 0.00 0.00 0.00 76 1017.4
20260506104100 11 252 1.6 0.0 0.00 0.00 0.00 76 1017.4
20260506103032 11 243 3.2 0.0 0.00 0.00 0.00 77 1017.2
20260506102040 11 263 1.6 0.0 0.00 0.00 0.00 78 1017.2
20260506101055 11 262 1.6 0.0 0.00 0.00 0.00 80 1017.2
20260506100028 11 238 1.6 0.0 0.00 0.00 0.00 84 1017.0
20260506095057 11 186 1.6 0.0 0.00 0.00 0.00 84 1017.0
20260506094033 11 130 1.6 0.0 0.00 0.00 0.00 85 1017.0
20260506093040 10 146 0.0 0.0 0.00 0.00 0.00 85 1017.0
20260506092037 10 142 0.0 0.0 0.00 0.00 0.00 83 1016.9
20260506091050 10 142 0.0 0.0 0.00 0.00 0.00 81 1016.9
20260506090040 10 142 0.0 0.0 0.00 0.00 0.00 80 1016.7
20260506085056 10 142 0.0 0.0 0.00 0.00 0.00 80 1016.5
20260506084026 10 142 0.0 0.0 0.00 0.00 0.00 80 1016.5
20260506083038 10 142 0.0 0.0 0.00 0.00 0.00 79 1016.5
20260506082055 10 142 0.0 0.0 0.00 0.00 0.00 79 1016.5
20260506081045 10 142 0.0 0.0 0.00 0.00 0.00 79 1016.5
20260506080122 11 142 0.0 0.0 0.00 0.00 0.00 79 1016.5
20260506073029 11 142 0.0 0.0 0.00 0.00 0.00 79 1016.5
20260506072034 11 142 0.0 0.0 0.00 0.00 0.00 79 1016.4
20260506071040 11 142 0.0 0.0 0.00 0.00 0.00 79 1016.4
20260506062033 11 142 0.0 0.0 0.00 0.00 0.00 78 1015.8
20260506061038 11 142 0.0 0.0 0.00 0.00 0.00 78 1015.8
20260506051035 12 142 0.0 0.0 0.00 0.00 0.00 78 1015.4
20260506045042 12 142 0.0 0.0 0.00 0.00 0.00 78 1015.3
20260506044050 12 142 0.0 0.0 0.00 0.00 0.00 78 1015.3
20260506043053 12 142 0.0 0.0 0.00 0.00 0.00 79 1015.1
20260506042043 13 142 0.0 0.0 0.00 0.00 0.00 79 1015.1
20260506041038 13 142 0.0 0.0 0.00 0.00 0.00 79 1015.1
20260506040054 13 142 0.0 0.0 0.00 0.00 0.00 79 1015.0
20260506035104 14 142 0.0 0.0 0.00 0.00 0.00 78 1014.9
20260506034031 14 142 0.0 0.0 0.00 0.00 0.00 77 1014.9
20260506033029 15 142 0.0 0.0 0.00 0.00 0.00 77 1014.8
20260506032051 15 142 0.0 0.0 0.00 0.00 0.00 75 1014.7
20260506031043 15 142 0.0 0.0 0.00 0.00 0.00 73 1014.7
20260506030026 16 142 0.0 0.0 0.00 0.00 0.00 72 1014.7
20260506025108 16 142 0.0 0.0 0.00 0.00 0.00 71 1014.6
20260506024041 16 143 1.6 0.0 0.00 0.00 0.00 70 1014.6
20260506023106 16 142 1.6 0.0 0.00 0.00 0.00 70 1014.4
20260506022055 16 136 3.2 0.0 0.00 0.00 0.00 69 1014.4
20260506021045 16 136 1.6 0.0 0.00 0.00 0.00 69 1014.4
20260506020048 17 110 1.6 0.0 0.00 0.00 0.00 70 1014.5
20260506015040 17 132 3.2 0.0 0.00 0.00 0.00 69 1014.5
20260506014044 17 125 1.6 0.0 0.00 0.00 0.00 68 1014.5
20260506013036 17 246 1.6 0.0 0.00 0.00 0.00 69 1014.5
20260506011057 17 135 1.6 0.0 0.00 0.00 0.00 68 1014.6
20260506010043 17 251 1.6 0.0 0.00 0.00 0.00 69 1014.6
20260506005039 17 162 1.6 0.0 0.00 0.00 0.00 67 1014.8
20260506004032 17 134 1.6 0.0 0.00 0.00 0.00 68 1014.8
20260506003033 17 137 3.2 0.0 0.00 0.00 0.00 69 1014.8
20260506002040 17 133 1.6 0.0 0.00 0.00 0.00 69 1015.0
20260506001030 16 148 3.2 0.0 0.00 0.00 0.00 69 1015.0
20260506000057 17 162 3.2 0.0 0.00 0.00 0.00 70 1015.0
20260505235048 16 217 1.6 0.0 0.00 0.00 0.00 70 1015.3
20260505234052 16 139 1.6 0.0 0.00 0.00 0.00 71 1015.3
20260505233041 16 288 1.6 0.0 0.00 0.00 0.00 69 1015.4
20260505232056 16 349 3.2 0.0 0.00 0.00 0.00 69 1015.4